Location: Unspecified
(0.0000°N, 0.0000°E)
Time: 06:40:36
(UTC+00:00)

Envisat - Pass Details

Date: 29 May 2019
Orbit: 764 x 766 km, 98.1° (Epoch: 15 September)

Event Time Altitude Azimuth Distance (km) Brightness Sun altitude
Rises 19:41:20 0° 193° (SSW) 3,229 6.1 -24.0°
Reaches altitude 10° 19:44:06 10° 207° (SSW) 2,300 5.5 -24.6°
Maximum altitude 19:47:58 22° 258° (WSW) 1,610 5.2 -25.5°
Drops below altitude 10° 19:51:50 10° 308° (NW) 2,292 6.4 -26.4°
Sets 19:54:36 0° 323° (NW) 3,215 7.2 -27.0°
